Location: Cisewo
(53.3833°N, 14.9000°E)
Time: 10:17:31
(UTC+00:00)

SL-4 R/B - Pass Details

Date: 18 April 2021
Orbit: 427 x 663 km, 51.6° (Epoch: 14 May)

Event Time Altitude Azimuth Distance (km) Brightness Sun altitude
Exits shadow 23:41:46 37° 103° (ESE) 1,040 3.3 -24.8°
Drops below altitude 10° 23:44:42 10° 95° (E) 2,086 5.0 -24.7°
Sets 23:47:03 0° 93° (E) 2,994 5.9 -24.6°
